Location: Gniazdowice
(50.2124°N, 20.2673°E)
Time: 14:18:28
(UTC+00:00)

RESURS DK-1 - Pass Details

Date: 23 May 2024
Orbit: 542 x 547 km, 69.9° (Epoch: 12 June)

Event Time Altitude Azimuth Distance (km) Brightness Sun altitude
Rises 00:26:31 0° 333° (NNW) 2,722 6.4 -15.0°
Reaches altitude 10° 00:28:50 10° 342° (NNW) 1,826 5.6 -14.9°
Maximum altitude 00:32:39 38° 51° (NE) 853 3.9 -14.6°
Drops below altitude 10° 00:36:28 10° 120° (ESE) 1,818 5.0 -14.3°
Sets 00:38:46 0° 129° (SE) 2,708 5.8 -14.1°
